Flag for Canada Weather past 2 weeks in Longueuil, Quebec, Canada

Now
61 °F

Cool.


Feels Like: 61 °F
Forecast: 54 / 75 °F
Wind: 9 mph from Southwest

Location: Mc Tavish

Current Time: Jul 3, 2015 at 8:36:51 AM

Latest Report: Jul 3, 2015 at 8:00 AM


Visibility: N/A

Pressure: 29.93 "Hg

Humidity: 70%

Dew point: 51 °F

Location of LongueuilLocation

Historic Weather in Longueuil — Graph

°F

Longueuil temperature yesterday

Maximum temperature yesterday: 72 °F (at 4:00 PM)
Minimum temperature yesterday: 56 °F (at 7:00 AM)
Average temperature yesterday: 64 °F

Past Weeks' High & Low Weather Summary

 TemperatureHumidityPressure
High80 °F (Jun 18, 6:00 PM)98% (Jul 1, 3:00 PM)30.15 "Hg (Jul 1, 3:00 PM)
Low54 °F (Jun 19, 7:00 AM)27% (Jun 26, 3:00 PM)29.51 "Hg (Jun 23, 3:00 PM)
Average66 °F65%29.88 "Hg
* Reported Jun 18 7:00 AM — Jul 3 7:00 AM, Longueuil, Weather by CustomWeather, © 2015

Note: Actual official high and low records may vary slightly from our data, if they occured in-between our weather recording intervals... More about our weather records

Advertising

Longueuil weather history for previous 24 hours

 ConditionsComfort  
Time TempWeatherWind HumidityBarometerVisibility
7:00 AM
Fri, Jul 3
59 °FCool.10 mph74%29.92 "HgN/A
6:00 AM58 °FCool.10 mph77%29.91 "HgN/A
5:00 AM59 °FCool.9 mph70%29.89 "HgN/A
4:00 AM59 °FCool.9 mph70%29.88 "HgN/A
3:00 AM59 °FCool.9 mph71%29.89 "HgN/A
2:00 AM60 °FCool.7 mph65%29.89 "HgN/A
1:00 AM62 °FMild.7 mph58%29.89 "HgN/A
12:00 AM64 °FMild.3 mph53%29.88 "HgN/A
11:00 PM
Thu, Jul 2
66 °FMild.3 mph48%29.88 "HgN/A
10:00 PM67 °FMild.3 mph46%29.89 "HgN/A
9:00 PM67 °FMild.2 mph47%29.88 "HgN/A
8:00 PM69 °FMild.3 mph43%29.86 "HgN/A
7:00 PM71 °FMild.7 mph42%29.85 "HgN/A
6:00 PM72 °FMild.5 mph40%29.84 "HgN/A
5:00 PM72 °FMild.7 mph40%29.84 "HgN/A
4:00 PM72 °FMild.6 mph41%29.84 "HgN/A
3:00 PM70 °FMild.7 mph45%29.84 "HgN/A
2:00 PM71 °FMild.7 mph46%29.83 "HgN/A
1:00 PM69 °FMild.8 mph51%29.83 "HgN/A
12:00 PM66 °FMild.6 mph56%29.83 "HgN/A
11:00 AM64 °FMild.7 mph59%29.82 "HgN/A
10:00 AM62 °FCool.6 mph70%29.82 "HgN/A
9:00 AM59 °FCool.7 mph75%29.83 "HgN/A
8:00 AM58 °FCool.6 mph76%29.82 "HgN/A
Weather by CustomWeather, © 2015

See weather overviewHow to use our weather pages